[[{"header":{"parameterUnit":"m.s-1","parameterCategory":1,"la1":30.2991,"la2":30.254,"lo1":-89.0895,"lo2":-89.0444,"dy":0.0017,"dx":0.0017,"nx":28,"ny":28,"refTime":"2025-06-01T09:00:00:Z","depth":0,"parameterNumber":2,"parameterNumberName":"U-component_of_WINDS"},"data":[0,0,0,0,0,0,0,0,0,0,0,0,0,0,0,0,0,0,0,0,0,0,0,0,0,0,0,0,0,0,0,0,0,0,0,0,0,0,0,0,0,0,0,0,0,0,0,0,0,0,0,0,0,0,0,0,0,0,0.4652,0.4653,0,0.4768,0.477,0.4771,0.4821,0.4821,0.482,0.482,0.4943,0.4947,0.495,0,0,0,0,0,0,0,0,0,0,0,0,0,0.4474,0.4477,0.4652,0.4653,0.4654,0.4768,0.477,0.4771,0.4821,0.4821,0.482,0.482,0.4942,0.4946,0.495,0,0,0,0,0,0,0,0,0,0,0,0,0,0.4567,0.4478,0.4651,0.4693,0.4698,0.4768,0.477,0.4772,0.4821,0.4821,0.482,0.482,0.4941,0.4946,0.4951,0.499,0,0,0.4967,0.4969,0,0,0,0,0,0,0,0,0.4562,0.4573,0.4685,0.469,0.4696,0.478,0.4752,0.4845,0.4821,0.4774,0.482,0.482,0.4889,0.4899,0.4921,0.4995,0.5001,0.4967,0.497,0.4973,0.4974,0,0,0,0,0,0,0,0.4555,0.4569,0.4698,0.4687,0.4693,0.4706,0.4719,0.477,0.4832,0.4778,0.4782,0.4795,0.4892,0.4916,0.4925,0.5002,0.4967,0.4972,0.4975,0.4977,0.5113,0.5114,0,0,0,0,0,0,0.4541,0.4563,0.4694,0.4701,0.4626,0.471,0.4724,0.4753,0.4832,0.4843,0.4795,0.4797,0.4908,0.4919,0.4929,0.4979,0.4973,0.4978,0.4981,0.5113,0.5114,0.5114,0,0,0,0,0,0,0.4537,0.4553,0.469,0.4633,0.4652,0.4713,0.4745,0.4756,0.478,0.4845,0.4856,0.4808,0.4908,0.4922,0.4974,0.4984,0.498,0.4985,0.5112,0.5113,0.5114,0.508,0,0,0,0,0,0,0.4532,0.4551,0.4566,0.4633,0.4654,0.4731,0.4746,0.4758,0.4788,0.4792,0.486,0.4871,0.4909,0.4966,0.4979,0.4991,0.4989,0.5112,0.5113,0.5114,0.508,0.5079,0.5079,0,0,0,0,0,0.4526,0.4552,0.4566,0.4582,0.4674,0.4732,0.4744,0.4786,0.4789,0.4805,0.4846,0.4869,0.4981,0.4971,0.4986,0.5,0.5111,0.5112,0.5114,0.5081,0.508,0.5079,0,0,0,0,0,0,0.4486,0.4562,0.4578,0.4627,0.4672,0.474,0.4761,0.4783,0.4829,0.4831,0.4881,0.4896,0.4944,0.4977,0.4965,0.5041,0.5048,0.5052,0.5018,0.5017,0.5016,0.5007,0.4993,0,0,0,0,0,0.4483,0.4522,0.4587,0.4624,0.4646,0.4699,0.4726,0.4754,0.4803,0.4823,0.4869,0.4916,0.4962,0.4992,0.5038,0.5085,0.5101,0.5103,0.5101,0.51,0.5104,0.5131,0.5132,0.5118,0.5118,0.5118,0,0,0.4477,0.4523,0.4546,0.4617,0.4656,0.4696,0.4715,0.4758,0.4788,0.483,0.4881,0.4916,0.4973,0.5023,0.5047,0.5052,0.5111,0.5102,0.51,0.5105,0.5132,0.5134,0.5135,0.5119,0.5118,0.5118,0,0,0.4487,0.4526,0.4561,0.4598,0.4656,0.4691,0.4699,0.4763,0.4787,0.4839,0.4871,0.4909,0.4987,0.5026,0.5056,0.5079,0.5102,0.5093,0.5088,0.5114,0.5115,0.5117,0.5125,0.5127,0.5096,0.5096,0.5096,0,0.4473,0.4534,0.4576,0.4617,0.4647,0.4685,0.4721,0.4756,0.4826,0.4846,0.4851,0.4949,0.499,0.5049,0.5054,0.5077,0.5089,0.5086,0.5112,0.5113,0.5115,0.5124,0.5127,0.5094,0.5094,0.5094,0.5095,0,0.4514,0.4556,0.4578,0.4642,0.4675,0.4713,0.4762,0.4791,0.4815,0.485,0.4902,0.4952,0.5009,0.5025,0.505,0.5088,0.5089,0.5102,0.5109,0.5114,0.5123,0.5127,0.5092,0.5093,0.5093,0.5093,0,0,0.4503,0.459,0.4597,0.4626,0.4692,0.4726,0.4765,0.4819,0.4842,0.4889,0.4924,0.4988,0.5,0.5034,0.5064,0.5087,0.5101,0.5097,0.5099,0.5096,0.5145,0.5135,0.5138,0.5116,0.5117,0.5118,0.5141,0,0.4522,0.4594,0.4632,0.4688,0.4727,0.4763,0.4798,0.4842,0.4875,0.4914,0.4952,0.4996,0.5009,0.5029,0.5053,0.5094,0.5112,0.5093,0.515,0.5151,0.5135,0.5143,0.5133,0.5152,0.5144,0.5145,0.5145,0,0.4554,0.4598,0.4657,0.4717,0.4735,0.4766,0.4818,0.4854,0.4905,0.4928,0.4964,0.4994,0.5037,0.5041,0.5102,0.5088,0.5113,0.5137,0.5139,0.5146,0.5149,0.5151,0.5159,0.5162,0.5151,0.5151,0.515,0,0.454,0.4614,0.4659,0.4684,0.4755,0.4775,0.4806,0.4856,0.4886,0.4932,0.4951,0.5002,0.503,0.5068,0.511,0.5109,0.5167,0.5174,0.5188,0.5187,0.5199,0.5198,0.5212,0.5215,0.5214,0.5214,0.5214,0,0.4557,0.4592,0.4654,0.4681,0.4721,0.4766,0.4804,0.4838,0.4882,0.4918,0.4952,0.4985,0.5038,0.5077,0.5111,0.5156,0.5168,0.5188,0.5197,0.5185,0.5183,0.5203,0.5203,0.5215,0.5215,0.5215,0.5215,0,0.4548,0.4591,0.4642,0.4705,0.4722,0.4748,0.4803,0.4831,0.4865,0.491,0.4923,0.4977,0.5025,0.5071,0.5135,0.5157,0.5203,0.5214,0.5185,0.519,0.5201,0.5199,0.5229,0.5235,0.5233,0.5233,0.5233,0,0.4556,0.4584,0.4649,0.4674,0.4704,0.4745,0.4775,0.4819,0.4849,0.4909,0.493,0.498,0.5022,0.5097,0.5143,0.5193,0.5205,0.5212,0.5213,0.52,0.5206,0.5203,0.5206,0.5211,0.5211,0.5211,0.5211,0,0.4566,0.4586,0.4627,0.4676,0.471,0.4751,0.4793,0.4812,0.4865,0.4897,0.4946,0.4978,0.5043,0.5093,0.5147,0.518,0.5204,0.521,0.5216,0.5205,0.5187,0.5197,0.5183,0.5209,0.5209,0.521,0.521,0.521,0.4566,0.4592,0.4642,0.4687,0.4723,0.4761,0.479,0.4828,0.4869,0.4925,0.4949,0.4998,0.5048,0.5123,0.5155,0.5194,0.52,0.5209,0.5211,0.5212,0.521,0.518,0.5205,0.5205,0.5205,0.5205,0.5205,0,0.4578,0.4611,0.4652,0.4709,0.4745,0.4763,0.481,0.4839,0.4881,0.4925,0.4966,0.5022,0.5069,0.5118,0.5169,0.5191,0.5204,0.5203,0.5202,0.5209,0.5202,0.5192,0.5192,0.5192,0.5192,0.5192,0.5192,0.5192,0.4588,0.4633,0.4658,0.4721,0.4755,0.4802,0.4827,0.4863,0.4898,0.4958,0.4998,0.5029,0.5075,0.5129,0.5174,0.5187,0.5204,0.5201,0.5217,0.5209,0.521,0.5211,0.5201,0.5204,0.5204,0.5221,0.5222,0.5222]},{"header":{"parameterUnit":"m.s-1","parameterCategory":1,"la1":30.2991,"la2":30.254,"lo1":-89.0895,"lo2":-89.0444,"dy":0.0017,"dx":0.0017,"nx":28,"ny":28,"refTime":"2025-06-01T09:00:00:Z","depth":0,"parameterNumber":3,"parameterNumberName":"V-component_of_WINDS"},"data":[0,0,0,0,0,0,0,0,0,0,0,0,0,0,0,0,0,0,0,0,0,0,0,0,0,0,0,0,0,0,0,0,0,0,0,0,0,0,0,0,0,0,0,0,0,0,0,0,0,0,0,0,0,0,0,0,0,0,4.3345,4.3345,0,4.3308,4.3308,4.3308,4.3304,4.3304,4.3304,4.3305,4.3261,4.3259,4.3258,0,0,0,0,0,0,0,0,0,0,0,0,0,4.3405,4.3404,4.3345,4.3345,4.3344,4.3308,4.3308,4.3307,4.3303,4.3304,4.3304,4.3305,4.3261,4.3259,4.3258,0,0,0,0,0,0,0,0,0,0,0,0,0,4.3375,4.3404,4.3345,4.3338,4.3337,4.3309,4.3308,4.3307,4.3303,4.3304,4.3305,4.3305,4.3262,4.326,4.3257,4.3231,0,0,4.325,4.3249,0,0,0,0,0,0,0,0,4.3376,4.3372,4.3339,4.3338,4.3337,4.3311,4.3313,4.3282,4.3303,4.3316,4.3305,4.3305,4.3277,4.3273,4.3265,4.3229,4.3228,4.325,4.3249,4.3248,4.3247,0,0,0,0,0,0,0,4.3378,4.3374,4.333,4.3339,4.3338,4.3334,4.3331,4.3307,4.3293,4.3315,4.3315,4.3311,4.3276,4.3267,4.3264,4.3227,4.325,4.3248,4.3247,4.3246,4.3166,4.3166,0,0,0,0,0,0,4.3383,4.3376,4.3331,4.3329,4.3359,4.3333,4.3329,4.3319,4.3294,4.329,4.331,4.3311,4.3271,4.3266,4.3262,4.3229,4.3248,4.3246,4.3244,4.3167,4.3166,4.3165,0,0,0,0,0,0,4.3384,4.3379,4.3333,4.3352,4.3346,4.3331,4.332,4.3318,4.3309,4.329,4.3287,4.3304,4.3271,4.3265,4.3239,4.3227,4.3245,4.3242,4.3168,4.3167,4.3166,4.3163,0,0,0,0,0,0,4.3386,4.3379,4.3371,4.3352,4.3345,4.3313,4.332,4.3317,4.3306,4.3306,4.3283,4.328,4.3271,4.3243,4.3237,4.3225,4.3241,4.3169,4.3167,4.3166,4.3164,4.3162,4.316,0,0,0,0,0,4.3388,4.3371,4.3371,4.3365,4.3335,4.3312,4.3308,4.33,4.3305,4.3295,4.3283,4.3281,4.323,4.324,4.3233,4.322,4.3169,4.3168,4.3166,4.3165,4.3163,4.316,0,0,0,0,0,0,4.3386,4.3368,4.3368,4.3344,4.333,4.3311,4.3299,4.3297,4.328,4.328,4.3269,4.3264,4.3237,4.3226,4.3238,4.3193,4.32,4.3197,4.3201,4.3199,4.3197,4.3199,4.3239,0,0,0,0,0,4.3384,4.3369,4.3353,4.3333,4.3326,4.3314,4.3304,4.3299,4.3283,4.3276,4.3262,4.3244,4.3224,4.3211,4.3191,4.3163,4.3157,4.315,4.3148,4.3147,4.3144,4.3126,4.3123,4.316,4.316,4.316,0,0,4.3377,4.3365,4.3356,4.3333,4.3321,4.3303,4.3309,4.329,4.3276,4.3272,4.3247,4.3236,4.3215,4.3188,4.3174,4.3177,4.3132,4.3145,4.3144,4.3141,4.3124,4.312,4.3117,4.3159,4.3159,4.3159,0,0,4.3356,4.3346,4.3329,4.3317,4.33,4.3292,4.3288,4.3269,4.3262,4.3237,4.3233,4.3216,4.3182,4.3167,4.3155,4.3128,4.3125,4.3122,4.3111,4.3094,4.3091,4.3088,4.3077,4.3073,4.3119,4.3119,4.3119,0,4.3349,4.3325,4.3319,4.3301,4.329,4.3288,4.3268,4.3256,4.3233,4.3224,4.3229,4.3186,4.3172,4.3139,4.3133,4.3124,4.3117,4.3124,4.3092,4.3089,4.3087,4.3076,4.3072,4.3119,4.3119,4.3119,4.3119,0,4.3317,4.33,4.3287,4.3267,4.3254,4.3235,4.3225,4.3212,4.3209,4.3199,4.3172,4.3156,4.3132,4.3125,4.312,4.3091,4.3093,4.3095,4.3101,4.3083,4.3072,4.3068,4.3118,4.3119,4.3119,4.3119,0,0,4.3293,4.327,4.3265,4.3255,4.3236,4.3222,4.3202,4.3181,4.317,4.3154,4.3135,4.3107,4.3108,4.3094,4.3088,4.3073,4.305,4.3076,4.3075,4.307,4.3015,4.3013,4.3008,4.3049,4.3048,4.3047,4.3016,0,4.3268,4.3235,4.323,4.32,4.3183,4.318,4.3162,4.3147,4.3138,4.3121,4.3109,4.3089,4.3093,4.3085,4.307,4.3056,4.3039,4.3059,4.3028,4.3028,4.3033,4.3003,4.3001,4.2973,4.3012,4.3012,4.3011,0,4.3235,4.322,4.3189,4.3172,4.3164,4.3149,4.3129,4.3113,4.3095,4.3089,4.3074,4.3069,4.3046,4.3055,4.3021,4.3035,4.3022,4.3013,4.3012,4.3007,4.3017,4.2996,4.2964,4.2959,4.3005,4.3005,4.3006,0,4.3219,4.3191,4.3168,4.316,4.314,4.3128,4.3119,4.3102,4.3089,4.3071,4.3062,4.3041,4.3028,4.3011,4.2999,4.3007,4.2965,4.2974,4.2957,4.2957,4.2947,4.2948,4.2911,4.2942,4.2942,4.2942,4.2942,0,4.3191,4.3172,4.3161,4.3147,4.3124,4.3117,4.3094,4.3084,4.3069,4.3051,4.3047,4.303,4.3017,4.2997,4.2987,4.296,4.2954,4.2947,4.2944,4.2946,4.2947,4.2937,4.2938,4.2941,4.2941,4.2942,4.2942,0,4.3169,4.3161,4.3136,4.3119,4.3114,4.3098,4.3082,4.3067,4.3058,4.3036,4.303,4.3014,4.2991,4.2978,4.2948,4.2941,4.291,4.2909,4.2917,4.2915,4.2899,4.29,4.2852,4.2845,4.2883,4.2883,4.2882,0,4.3151,4.3137,4.3118,4.3107,4.3098,4.308,4.3068,4.3059,4.3046,4.3024,4.3011,4.2988,4.2969,4.2931,4.2915,4.2892,4.2889,4.2874,4.2885,4.2888,4.2887,4.2887,4.2885,4.2872,4.2871,4.2871,4.2871,0,4.312,4.3117,4.31,4.3082,4.3068,4.3053,4.3038,4.3028,4.3017,4.3002,4.2979,4.2964,4.2934,4.291,4.2885,4.2872,4.2868,4.2868,4.2862,4.2864,4.2868,4.2863,4.2909,4.2868,4.2869,4.2869,4.2869,4.2869,4.3098,4.3084,4.307,4.3051,4.3039,4.3025,4.301,4.2999,4.2981,4.2957,4.2953,4.2928,4.2908,4.2875,4.2862,4.2841,4.2843,4.2836,4.2834,4.2831,4.283,4.2873,4.2836,4.2836,4.2836,4.2836,4.2836,0,4.3065,4.3056,4.3039,4.3019,4.3003,4.3004,4.2987,4.2973,4.2952,4.2936,4.2918,4.289,4.2867,4.285,4.2825,4.2811,4.2808,4.2805,4.2804,4.2801,4.283,4.2836,4.2807,4.2807,4.2807,4.2807,4.2807,4.2807,4.3046,4.3023,4.3018,4.2988,4.2977,4.2955,4.2945,4.2931,4.2917,4.2888,4.2869,4.2859,4.2842,4.2816,4.2793,4.2789,4.2779,4.2775,4.2769,4.2796,4.2799,4.2802,4.2808,4.2773,4.2773,4.2742,4.2742,4.2742]}]]